CFG5YW EDDH-EDDF

Flight info

Callsign CFG5YW
Flight time 0h 55m
Altitude 30000
Route AMLUH2G/33 AMLUH M852 DENIX DCT RIMET/N0451F310 T157 KOKEB/N0405F230 T157 KERAX KERAX5A
Aircraft A321/M-SDE3FGHIRWY/LB1

Departure

Time 2026-05-05 17:48
Airport Hamburg Helmut Schmidt Airport (EDDH)

Arrival

Time 2026-05-05 18:44
Airport Frankfurt Main Airport (EDDF)
Time Latitude Longitude Altitude Speed Heading
2026-05-05 16:50 53.63334 10.00354 46 ft 0 kts 86°
2026-05-05 17:39 53.63333 10.00340 46 ft 3 kts 86°
2026-05-05 17:40 53.63332 10.00306 46 ft 2 kts 86°
2026-05-05 17:40 53.63332 10.00277 46 ft 3 kts 98°
2026-05-05 17:40 53.63337 10.00248 46 ft 3 kts 133°
2026-05-05 17:40 53.63352 10.00232 45 ft 3 kts 169°
2026-05-05 17:41 53.63370 10.00228 43 ft 2 kts 176°
2026-05-05 17:41 53.63377 10.00227 42 ft 0 kts 176°
2026-05-05 17:43 53.63357 10.00228 44 ft 4 kts 187°
2026-05-05 17:44 53.63339 10.00203 46 ft 4 kts 230°
2026-05-05 17:44 53.63300 10.00168 46 ft 11 kts 187°
2026-05-05 17:44 53.63218 10.00179 45 ft 11 kts 175°
2026-05-05 17:44 53.63144 10.00189 45 ft 10 kts 175°
2026-05-05 17:45 53.63079 10.00188 45 ft 9 kts 198°
2026-05-05 17:45 53.63011 10.00119 45 ft 12 kts 212°
2026-05-05 17:45 53.62945 10.00048 44 ft 10 kts 216°
2026-05-05 17:45 53.62910 9.99957 46 ft 8 kts 243°
2026-05-05 17:46 53.62900 9.99926 46 ft 0 kts 243°
2026-05-05 17:47 53.62899 9.99922 46 ft 3 kts 243°
2026-05-05 17:47 53.62876 9.99846 44 ft 9 kts 243°
2026-05-05 17:47 53.62865 9.99760 47 ft 9 kts 288°
2026-05-05 17:47 53.62940 9.99683 47 ft 18 kts 333°
2026-05-05 17:48 53.63257 9.99411 46 ft 86 kts 333°
2026-05-05 17:48 53.63974 9.98791 41 ft 143 kts 333°
2026-05-05 17:48 53.64981 9.97917 116 ft 177 kts 335°
2026-05-05 17:48 53.66074 9.96991 701 ft 177 kts 336°
2026-05-05 17:49 53.67169 9.96056 1346 ft 178 kts 336°
2026-05-05 17:49 53.68318 9.95085 1588 ft 194 kts 339°
2026-05-05 17:49 53.69661 9.94674 1845 ft 204 kts
2026-05-05 17:49 53.71098 9.94694 2382 ft 207 kts
2026-05-05 17:50 53.72475 9.95232 2996 ft 206 kts 33°
2026-05-05 17:50 53.73358 9.97100 3499 ft 210 kts 70°
2026-05-05 17:50 53.73755 9.99501 4049 ft 215 kts 74°
2026-05-05 17:50 53.74086 10.01972 4666 ft 219 kts 86°
2026-05-05 17:51 53.73883 10.04552 5119 ft 232 kts 110°
2026-05-05 17:51 53.73089 10.07070 5346 ft 255 kts 120°
2026-05-05 17:51 53.72171 10.09758 5721 ft 271 kts 120°
2026-05-05 17:51 53.71233 10.12518 6354 ft 277 kts 120°
2026-05-05 17:52 53.70267 10.15377 6947 ft 284 kts 120°
2026-05-05 17:52 53.69204 10.18191 7609 ft 286 kts 132°
2026-05-05 17:52 53.67714 10.20408 8258 ft 287 kts 151°
2026-05-05 17:52 53.65896 10.21750 8945 ft 286 kts 167°
2026-05-05 17:53 53.63969 10.22618 9642 ft 288 kts 168°
2026-05-05 17:53 53.62026 10.23499 10196 ft 296 kts 167°
2026-05-05 17:53 53.59957 10.24442 10321 ft 318 kts 167°
2026-05-05 17:53 53.57751 10.25449 10447 ft 339 kts 167°
2026-05-05 17:54 53.55413 10.26521 10651 ft 355 kts 167°
2026-05-05 17:54 53.53013 10.27623 11164 ft 360 kts 166°
2026-05-05 17:54 53.50586 10.28740 11770 ft 363 kts 166°
2026-05-05 17:54 53.48138 10.29863 12372 ft 367 kts 166°
2026-05-05 17:55 53.45696 10.30975 12962 ft 370 kts 166°
2026-05-05 17:55 53.43198 10.32112 13566 ft 374 kts 166°
2026-05-05 17:55 53.40678 10.33262 14102 ft 377 kts 166°
2026-05-05 17:55 53.38138 10.34413 14623 ft 379 kts 166°
2026-05-05 17:56 53.35567 10.35569 15148 ft 382 kts 166°
2026-05-05 17:56 53.33003 10.36719 15664 ft 385 kts 167°
2026-05-05 17:56 53.30408 10.37882 16182 ft 387 kts 167°
2026-05-05 17:56 53.27796 10.39051 16690 ft 389 kts 166°
2026-05-05 17:57 53.25177 10.40218 17247 ft 390 kts 166°
2026-05-05 17:57 53.22552 10.41384 17773 ft 392 kts 166°
2026-05-05 17:57 53.19911 10.42561 18250 ft 394 kts 166°
2026-05-05 17:57 53.17253 10.43749 18663 ft 397 kts 166°
2026-05-05 17:58 53.14605 10.44884 19076 ft 398 kts 170°
2026-05-05 17:58 53.11854 10.45418 19483 ft 399 kts 180°
2026-05-05 17:58 53.09082 10.45185 19900 ft 400 kts 186°
2026-05-05 17:58 53.06307 10.44789 20325 ft 401 kts 186°
2026-05-05 17:59 53.03517 10.44405 20754 ft 403 kts 186°
2026-05-05 17:59 53.00713 10.44027 21174 ft 405 kts 186°
2026-05-05 17:59 52.97897 10.43647 21589 ft 407 kts 186°
2026-05-05 17:59 52.95067 10.43261 22012 ft 409 kts 186°
2026-05-05 18:00 52.92227 10.42874 22423 ft 411 kts 186°
2026-05-05 18:00 52.89371 10.42485 22846 ft 412 kts 186°
2026-05-05 18:00 52.86542 10.42095 23243 ft 414 kts 187°
2026-05-05 18:00 52.83669 10.41702 23609 ft 416 kts 187°
2026-05-05 18:01 52.80777 10.41309 23943 ft 418 kts 187°
2026-05-05 18:01 52.77875 10.40914 24280 ft 419 kts 187°
2026-05-05 18:01 52.74967 10.40519 24633 ft 420 kts 187°
2026-05-05 18:01 52.72052 10.40125 24972 ft 421 kts 187°
2026-05-05 18:02 52.69127 10.39730 25302 ft 422 kts 187°
2026-05-05 18:02 52.66193 10.39335 25630 ft 424 kts 187°
2026-05-05 18:02 52.63289 10.38945 25946 ft 425 kts 187°
2026-05-05 18:02 52.60335 10.38547 26246 ft 426 kts 187°
2026-05-05 18:03 52.57372 10.38150 26557 ft 428 kts 187°
2026-05-05 18:03 52.54399 10.37751 26844 ft 429 kts 187°
2026-05-05 18:03 52.51419 10.37350 27153 ft 430 kts 187°
2026-05-05 18:03 52.48430 10.36947 27458 ft 432 kts 187°
2026-05-05 18:04 52.45438 10.36542 27740 ft 433 kts 187°
2026-05-05 18:04 52.42422 10.36134 28031 ft 435 kts 187°
2026-05-05 18:04 52.39408 10.35724 28316 ft 436 kts 187°
2026-05-05 18:04 52.36419 10.35321 28626 ft 436 kts 187°
2026-05-05 18:05 52.33398 10.34921 29032 ft 435 kts 187°
2026-05-05 18:05 52.30390 10.34524 29424 ft 433 kts 187°
2026-05-05 18:05 52.27399 10.34131 29796 ft 430 kts 187°
2026-05-05 18:06 52.21536 10.33365 29862 ft 416 kts 187°
2026-05-05 18:06 52.15790 10.32614 29861 ft 414 kts 187°
2026-05-05 18:07 52.10089 10.31865 29861 ft 413 kts 187°
2026-05-05 18:07 52.04352 10.31093 29857 ft 414 kts 186°
2026-05-05 18:08 51.98608 10.30343 29852 ft 414 kts 186°
2026-05-05 18:08 51.92866 10.29596 29823 ft 414 kts 186°
2026-05-05 18:09 51.87130 10.28862 29823 ft 414 kts 186°
2026-05-05 18:09 51.81424 10.28131 29823 ft 414 kts 186°
2026-05-05 18:10 51.75691 10.27382 29826 ft 413 kts 186°
2026-05-05 18:10 51.69961 10.26639 29828 ft 413 kts 186°
2026-05-05 18:11 51.64232 10.25902 29767 ft 413 kts 186°
2026-05-05 18:11 51.61364 10.25528 29476 ft 413 kts 186°
2026-05-05 18:11 51.58495 10.25157 29183 ft 414 kts 185°
2026-05-05 18:11 51.55618 10.24786 28904 ft 415 kts 185°
2026-05-05 18:12 51.52790 10.24420 28517 ft 412 kts 185°
2026-05-05 18:12 51.49950 10.24057 27951 ft 407 kts 185°
2026-05-05 18:12 51.47141 10.23701 27415 ft 403 kts 185°
2026-05-05 18:12 51.44360 10.23354 26880 ft 399 kts 185°
2026-05-05 18:13 51.41607 10.23010 26360 ft 395 kts 185°
2026-05-05 18:13 51.38878 10.22667 25848 ft 391 kts 185°
2026-05-05 18:13 51.36177 10.22323 25332 ft 388 kts 185°
2026-05-05 18:13 51.33495 10.21981 24834 ft 385 kts 185°
2026-05-05 18:14 51.30836 10.21492 24337 ft 388 kts 194°
2026-05-05 18:14 51.28302 10.19908 23850 ft 395 kts 205°
2026-05-05 18:14 51.25826 10.17994 23351 ft 395 kts 205°
2026-05-05 18:14 51.23368 10.16067 22783 ft 393 kts 205°
2026-05-05 18:15 51.20952 10.14173 22220 ft 391 kts 205°
2026-05-05 18:15 51.18519 10.12273 21673 ft 388 kts 205°
2026-05-05 18:15 51.16102 10.10393 21119 ft 385 kts 205°
2026-05-05 18:15 51.13699 10.08532 20586 ft 383 kts 205°
2026-05-05 18:16 51.11307 10.06685 20055 ft 381 kts 205°
2026-05-05 18:16 51.08930 10.04849 19542 ft 379 kts 205°
2026-05-05 18:16 51.06564 10.03027 19034 ft 377 kts 205°
2026-05-05 18:16 51.04210 10.01220 18538 ft 375 kts 205°
2026-05-05 18:17 51.01870 9.99424 18039 ft 372 kts 205°
2026-05-05 18:17 50.99546 9.97638 17480 ft 370 kts 205°
2026-05-05 18:17 50.97231 9.95863 16925 ft 369 kts 205°
2026-05-05 18:17 50.94958 9.94125 16390 ft 367 kts 205°
2026-05-05 18:18 50.92663 9.92373 15860 ft 365 kts 205°
2026-05-05 18:18 50.90382 9.90638 15540 ft 362 kts 204°
2026-05-05 18:18 50.88115 9.88914 15039 ft 361 kts 205°
2026-05-05 18:18 50.85862 9.87192 14552 ft 359 kts 205°
2026-05-05 18:19 50.83626 9.85481 14076 ft 357 kts 205°
2026-05-05 18:19 50.81396 9.83781 13612 ft 355 kts 205°
2026-05-05 18:19 50.79924 9.82661 13264 ft 353 kts 205°
2026-05-05 18:19 50.77717 9.80986 12761 ft 351 kts 205°
2026-05-05 18:20 50.75524 9.79321 12262 ft 349 kts 205°
2026-05-05 18:20 50.73343 9.77666 11753 ft 346 kts 205°
2026-05-05 18:20 50.71181 9.76029 11267 ft 344 kts 205°
2026-05-05 18:20 50.69032 9.74404 10879 ft 341 kts 205°
2026-05-05 18:21 50.66891 9.72787 10787 ft 341 kts 205°
2026-05-05 18:21 50.64791 9.71027 10802 ft 343 kts 215°
2026-05-05 18:21 50.63016 9.68523 10809 ft 344 kts 224°
2026-05-05 18:21 50.61320 9.65863 10808 ft 344 kts 224°
2026-05-05 18:22 50.59652 9.63229 10766 ft 343 kts 224°
2026-05-05 18:22 50.57995 9.60614 10589 ft 332 kts 224°
2026-05-05 18:22 50.56400 9.58090 10468 ft 319 kts 224°
2026-05-05 18:22 50.54863 9.55660 10345 ft 307 kts 224°
2026-05-05 18:23 50.53392 9.53333 10186 ft 292 kts 224°
2026-05-05 18:23 50.51979 9.51097 9789 ft 285 kts 224°
2026-05-05 18:23 50.50589 9.48900 9235 ft 282 kts 224°
2026-05-05 18:23 50.49212 9.46733 8695 ft 279 kts 224°
2026-05-05 18:24 50.47856 9.44586 8177 ft 275 kts 224°
2026-05-05 18:24 50.46524 9.42469 7855 ft 271 kts 224°
2026-05-05 18:24 50.45190 9.40351 7812 ft 273 kts 224°
2026-05-05 18:24 50.43853 9.38232 7819 ft 273 kts 224°
2026-05-05 18:25 50.42515 9.36119 7816 ft 273 kts 224°
2026-05-05 18:25 50.41629 9.34720 7817 ft 272 kts 224°
2026-05-05 18:25 50.39852 9.31923 7344 ft 270 kts 224°
2026-05-05 18:25 50.38534 9.29851 6984 ft 268 kts 224°
2026-05-05 18:26 50.37238 9.27816 6817 ft 267 kts 224°
2026-05-05 18:26 50.35925 9.25761 6823 ft 268 kts 224°
2026-05-05 18:26 50.34603 9.23700 6821 ft 268 kts 224°
2026-05-05 18:26 50.33284 9.21651 6819 ft 267 kts 224°
2026-05-05 18:27 50.31964 9.19600 6790 ft 267 kts 224°
2026-05-05 18:27 50.30654 9.17567 6451 ft 265 kts 224°
2026-05-05 18:27 50.29349 9.15548 6086 ft 263 kts 224°
2026-05-05 18:27 50.28048 9.13558 5720 ft 261 kts 224°
2026-05-05 18:28 50.25461 9.09650 4992 ft 257 kts 224°
2026-05-05 18:28 50.24174 9.07721 4615 ft 256 kts 224°
2026-05-05 18:28 50.22902 9.05818 4231 ft 256 kts 224°
2026-05-05 18:29 50.21621 9.03918 4017 ft 253 kts 224°
2026-05-05 18:29 50.20333 9.02012 4015 ft 256 kts 224°
2026-05-05 18:29 50.19040 9.00097 4017 ft 256 kts 224°
2026-05-05 18:29 50.17762 8.98203 4014 ft 247 kts 224°
2026-05-05 18:30 50.16551 8.96405 4015 ft 237 kts 224°
2026-05-05 18:30 50.15364 8.94643 4017 ft 234 kts 224°
2026-05-05 18:30 50.14220 8.92946 4023 ft 218 kts 224°
2026-05-05 18:30 50.13166 8.91389 4012 ft 201 kts 224°
2026-05-05 18:31 50.12193 8.89955 4005 ft 184 kts 224°
2026-05-05 18:31 50.11296 8.88622 4025 ft 174 kts 226°
2026-05-05 18:31 50.10709 8.87016 4020 ft 172 kts 249°
2026-05-05 18:31 50.10299 8.85262 3885 ft 172 kts 249°
2026-05-05 18:32 50.09891 8.83521 3697 ft 171 kts 249°
2026-05-05 18:32 50.09488 8.81811 3489 ft 171 kts 250°
2026-05-05 18:32 50.09079 8.80075 3257 ft 171 kts 250°
2026-05-05 18:32 50.08672 8.78350 3033 ft 169 kts 250°
2026-05-05 18:33 50.08266 8.76628 2803 ft 169 kts 250°
2026-05-05 18:33 50.07858 8.74903 2611 ft 177 kts 250°
2026-05-05 18:33 50.07413 8.73032 3321 ft 185 kts 249°
2026-05-05 18:33 50.06976 8.71152 4245 ft 190 kts 249°
2026-05-05 18:34 50.06499 8.69083 4814 ft 216 kts 248°
2026-05-05 18:34 50.05599 8.66962 4984 ft 259 kts 221°
2026-05-05 18:34 50.04037 8.65662 4989 ft 251 kts 193°
2026-05-05 18:34 50.02357 8.65764 4996 ft 241 kts 162°
2026-05-05 18:35 50.00979 8.67180 5003 ft 245 kts 131°
2026-05-05 18:35 50.00250 8.69533 5005 ft 246 kts 100°
2026-05-05 18:35 50.00355 8.72180 5010 ft 249 kts 78°
2026-05-05 18:35 50.00805 8.74782 5008 ft 249 kts 74°
2026-05-05 18:36 50.01303 8.77366 5010 ft 250 kts 74°
2026-05-05 18:36 50.01810 8.79949 5010 ft 250 kts 74°
2026-05-05 18:36 50.02320 8.82531 5012 ft 250 kts 74°
2026-05-05 18:36 50.02830 8.85107 4842 ft 249 kts 74°
2026-05-05 18:37 50.03337 8.87675 4541 ft 248 kts 74°
2026-05-05 18:37 50.03839 8.90228 4234 ft 246 kts 74°
2026-05-05 18:37 50.04364 8.92751 4029 ft 244 kts 65°
2026-05-05 18:37 50.05401 8.94740 4016 ft 243 kts 32°
2026-05-05 18:38 50.06964 8.95624 4021 ft 240 kts 360°
2026-05-05 18:38 50.08608 8.95359 4021 ft 238 kts 345°
2026-05-05 18:38 50.10089 8.94335 4018 ft 232 kts 315°
2026-05-05 18:38 50.10970 8.92371 4029 ft 212 kts 289°
2026-05-05 18:39 50.11411 8.90301 4018 ft 191 kts 277°
2026-05-05 18:39 50.11150 8.88446 4019 ft 173 kts 239°
2026-05-05 18:39 50.10635 8.86775 4007 ft 171 kts 249°
2026-05-05 18:39 50.10234 8.85021 3866 ft 171 kts 249°
2026-05-05 18:40 50.09830 8.83278 3661 ft 171 kts 249°
2026-05-05 18:40 50.09425 8.81546 3449 ft 170 kts 250°
2026-05-05 18:40 50.09017 8.79813 3227 ft 170 kts 249°
2026-05-05 18:40 50.08616 8.78113 3005 ft 169 kts 249°
2026-05-05 18:41 50.08205 8.76372 2773 ft 169 kts 249°
2026-05-05 18:41 50.07805 8.74681 2544 ft 168 kts 250°
2026-05-05 18:41 50.07401 8.72972 2327 ft 168 kts 250°
2026-05-05 18:41 50.06998 8.71266 2094 ft 169 kts 250°
2026-05-05 18:42 50.06597 8.69573 1888 ft 163 kts 250°
2026-05-05 18:42 50.06217 8.67970 1654 ft 153 kts 250°
2026-05-05 18:42 50.05854 8.66443 1463 ft 148 kts 249°
2026-05-05 18:42 50.05500 8.64950 1255 ft 147 kts 249°
2026-05-05 18:43 50.05148 8.63468 1046 ft 146 kts 250°
2026-05-05 18:43 50.04795 8.61985 834 ft 146 kts 249°
2026-05-05 18:43 50.04450 8.60528 654 ft 146 kts 249°
2026-05-05 18:43 50.04099 8.59051 449 ft 145 kts 249°
2026-05-05 18:44 50.03752 8.57587 343 ft 137 kts 249°
2026-05-05 18:44 50.03486 8.56488 345 ft 81 kts 249°
2026-05-05 18:44 50.03348 8.55897 341 ft 40 kts 250°
2026-05-05 18:44 50.03309 8.55575 341 ft 23 kts 274°
2026-05-05 18:45 50.03326 8.55376 340 ft 15 kts 278°
2026-05-05 18:45 50.03341 8.55236 340 ft 12 kts 280°
2026-05-05 18:45 50.03350 8.55160 343 ft 4 kts 281°
2026-05-05 18:45 50.03355 8.55126 343 ft 4 kts 284°
2026-05-05 18:46 50.03406 8.55101 340 ft 11 kts 36°
2026-05-05 18:46 50.03428 8.55206 343 ft 10 kts 77°
2026-05-05 18:46 50.03454 8.55313 347 ft 12 kts 69°
2026-05-05 18:46 50.03484 8.55434 347 ft 11 kts 69°
2026-05-05 18:47 50.03510 8.55542 348 ft 11 kts 69°
2026-05-05 18:47 50.03550 8.55704 348 ft 18 kts 69°
2026-05-05 18:47 50.03592 8.55887 348 ft 17 kts 70°
2026-05-05 18:47 50.03632 8.56057 344 ft 16 kts 69°
2026-05-05 18:48 50.03671 8.56216 345 ft 15 kts 69°
2026-05-05 18:48 50.03706 8.56363 343 ft 14 kts 70°
2026-05-05 18:48 50.03738 8.56501 349 ft 14 kts 69°
2026-05-05 18:48 50.03780 8.56675 347 ft 18 kts 70°
2026-05-05 18:49 50.03823 8.56856 347 ft 17 kts 70°
2026-05-05 18:49 50.03863 8.57026 345 ft 16 kts 69°
2026-05-05 18:49 50.03902 8.57185 344 ft 15 kts 70°
2026-05-05 18:49 50.03936 8.57333 342 ft 14 kts 70°
2026-05-05 18:50 50.03969 8.57471 349 ft 13 kts 69°
2026-05-05 18:50 50.03999 8.57595 348 ft 12 kts 69°
2026-05-05 18:50 50.04037 8.57752 345 ft 22 kts 70°
2026-05-05 18:50 50.04089 8.57973 343 ft 20 kts 69°
2026-05-05 18:51 50.04136 8.58125 346 ft 14 kts 44°
2026-05-05 18:51 50.04213 8.58188 347 ft 10 kts 25°
2026-05-05 18:51 50.04278 8.58203 343 ft 9 kts 351°
2026-05-05 18:51 50.04333 8.58176 340 ft 8 kts 339°
2026-05-05 18:52 50.04394 8.58140 349 ft 9 kts 340°
2026-05-05 18:52 50.04467 8.58099 342 ft 12 kts 340°
2026-05-05 18:52 50.04542 8.58055 348 ft 11 kts 339°
2026-05-05 18:52 50.04597 8.58023 341 ft 6 kts 339°
2026-05-05 18:53 50.04601 8.58021 350 ft 0 kts 339°
2026-05-05 18:53 50.04615 8.58012 343 ft 6 kts 339°
2026-05-05 18:53 50.04654 8.57989 341 ft 5 kts 339°
2026-05-05 18:53 50.04697 8.57964 343 ft 11 kts 340°
2026-05-05 18:54 50.04776 8.57921 342 ft 12 kts 339°
2026-05-05 18:54 50.04832 8.57872 347 ft 4 kts 316°
2026-05-05 18:54 50.04856 8.57844 344 ft 8 kts 335°
2026-05-05 18:54 50.04904 8.57868 343 ft 4 kts 20°
2026-05-05 18:55 50.04919 8.57876 347 ft 0 kts 20°